This is the latest recevied weather packets stored in our database for station/object 7M1JBF-11. If no packets are shown the sender has not sent any weather packets the latest 10 day(s).
| Time | Temp. | Humidity | Pressure | Rain* | Wind** | Luminosity | Snow |
|---|---|---|---|---|---|---|---|
| 1777762817 | 21.11° C | 100% | 1012.5 hPa | 0 mm | - | - | - |
| 1777762216 | 20.56° C | 100% | 1012.7 hPa | 0 mm | - | - | - |
| 1777761615 | 20.56° C | 100% | 1012.7 hPa | 0 mm | - | - | - |
| 1777761013 | 20.56° C | 100% | 1012.7 hPa | 0 mm | - | - | - |
| 1777760412 | 20.56° C | 100% | 1012.7 hPa | 0 mm | - | - | - |
| 1777759811 | 20.56° C | 100% | 1012.5 hPa | 0 mm | - | - | - |
| 1777759209 | 20.56° C | 100% | 1012.4 hPa | 0 mm | - | - | - |
| 1777758608 | 21.11° C | 100% | 1012.5 hPa | 0 mm | - | - | - |
| 1777758006 | 21.11° C | 100% | 1012.7 hPa | 0 mm | - | - | - |
| 1777757405 | 21.11° C | 100% | 1012.6 hPa | 0 mm | - | - | - |
| 1777756804 | 20.56° C | 100% | 1012.4 hPa | 0 mm | - | - | - |
| 1777756202 | 19.44° C | 100% | 1012.2 hPa | 0 mm | - | - | - |
| 1777755601 | 18.33° C | 100% | 1012.2 hPa | 0 mm | - | - | - |
| 1777755000 | 17.22° C | 100% | 1012.1 hPa | 0 mm | - | - | - |
| 1777754398 | 17.22° C | 100% | 1011.9 hPa | 0 mm | - | - | - |
| 1777753797 | 17.22° C | 100% | 1011.9 hPa | 0 mm | - | - | - |
| 1777753195 | 17.22° C | 100% | 1011.8 hPa | 0 mm | - | - | - |
| 1777752594 | 17.22° C | 100% | 1011.7 hPa | 0 mm | - | - | - |
| 1777751993 | 17.22° C | 100% | 1011.7 hPa | 0 mm | - | - | - |
| 1777751391 | 17.22° C | 100% | 1011.5 hPa | 0 mm | - | - | - |
| 1777750790 | 17.22° C | 100% | 1011.7 hPa | 0 mm | - | - | - |
| 1777750189 | 17.22° C | 100% | 1011.9 hPa | 0 mm | - | - | - |
| 1777749587 | 17.22° C | 100% | 1011.9 hPa | 0 mm | - | - | - |
| 1777748986 | 17.78° C | 100% | 1011.8 hPa | 0 mm | - | - | - |
| 1777747783 | 17.78° C | 100% | 1011.6 hPa | 0 mm | - | - | - |
* Rain since midnight (hover to see other rain measurements)
** Current wind speed in m/s (hover to see current wind gust speed)